EHI
2 2 4 5 4 3 3 3 3 3 3 3 3 3 3 4 4 3 2 1 0 0 0 0 0 0 0 0 0 0 0 0 0 0 0 0 0 0
3 2 3 3 3 3 3 3 4 4 3 3 3 3 3 3 3 2 1 0 0 0 0 0 0 0 0 0 0 0 0 0 0 0 0 0 0 0
2 1 1 1 2 3 3 4 5 5 4 3 3 3 4 3 3 3 1 1 1 0 0 0 0 0 0 0 0 0 0 0 0 0 0 0 0 0
1 0 0 0 1 2 3 3 4 4 3 3 3 4 4 4 4 4 3 3 2 1 0 0 0 0 0 0 0 0 0 0 0 0 0 0 0 0
1 0 0 0 1 2 2 2 3 3 4 4 4 5 5 5 4 4 4 4 3 2 1 0 0 0 0 0 0 0 0 0 0 0 0 0 0 0
0 0 0 0 1 2 2 2 2 3 4 4 4 5 6 6 5 4 3 4 3 3 2 1 1 0 0 0 0 0 0 0 0 0 0 0 0 0
0 0 0 0 1 1 1 2 2 3 3 3 3 5 6 7 6 4 3 3 3 3 3 3 2 1 1 1 0 0 0 0 0 0 0 0 0 0
0 0 0 0 0 0 0 1 1 2 3 3 3 4 5 6 6 5 4 3 3 3 3 3 3 3 3 2 1 0 0 0 0 0 0 0 0 0
1 0 0 0 0 0 0 0 0 0 1 2 2 3 3 4 5 5 5 4 4 3 3 3 3 4 3 2 1 0 0 0 0 0 0 0 0 0
2 1 0 0 0 0 0 0 0 0 0 0 1 1 1 2 3 5 5 5 4 3 3 3 3 2 2 2 1 0 0 0 0 0 0 0 0 0
3 2 1 0 0 0 0 0 0 0 0 0 0 0 0 1 1 3 3 3 3 2 3 3 1 1 1 1 1 0 0 0 0 0 0 0 0 0
3 3 1 0 0 0 0 1 1 2 1 0 0 0 0 0 0 1 1 1 1 1 2 2 1 1 1 1 0 0 0 0 0 0 0 0 0 0
3 3 2 1 0 0 0 1 2 2 1 0 0 0 0 1 0 0 0 0 1 1 1 2 2 2 2 1 1 1 1 0 0 0 0 0 0 0
2 2 2 1 0 0 0 1 1 1 1 0 0 0 0 0 0 0 0 0 1 1 1 2 2 2 1 1 1 1 1 0 0 0 0 0 0 0
1 1 1 0 0 0 0 0 0 0 0 0 0 0 0 0 0 0 0 0 1 1 0 1 1 1 0 0 0 1 1 0 0 0 0 0 0 0
0 0 0 0 0 0 0 0 0 0 0 0 0 0 0 0 0 0 0 0 0 0 0 0 0 0 0 0 0 0 0 0 0 0 0 0 0 0
0 0 0 0 0 0 0 0 0 0 0 0 0 0 0 0 0 0 0 0 0 0 0 0 0 0 0 0 0 0 0 0 0 0 0 0 0 0
0 0 0 0 0 1 1 1 0 0 0 0 0 0 0 0 0 0 0 0 0 0 0 0 0 0 0 0 0 0 0 0 0 0 0 0 0 0
0 0 0 0 0 1 2 2 1 0 0 0 0 0 0 0 0 0 0 0 0 0 0 0 0 0 0 0 0 0 0 0 0 0 0 0 0 0
0 0 0 0 0 0 1 1 1 0 0 0 0 0 0 0 0 0 0 0 0 0 0 0 0 0 0 0 0 0 0 0 0 0 0 0 0 0
0 0 0 0 0 0 0 0 0 0 0 0 0 0 0 0 0 0 0 0 0 0 0 0 0 0 0 0 0 0 0 0 0 0 0 0 0 0
0 0 0 0 0 0 0 0 0 0 0 0 0 0 0 0 0 0 0 0 0 0 0 0 0 0 0 0 0 0 0 0 0 0 0 0 0 0
0 0 0 0 0 0 0 0 0 0 0 0 0 0 0 0 0 0 0 0 0 0 0 0 0 0 0 0 0 0 0 0 0 0 0 0 0 0
Wind_Speed
6 6 5 3 4 4 4 5 5 6 5 3 3 3 3 3 1 4 5 4 6 6 6 7 8 8 8 8 8 8 8 8 8 9 10 10 10 10
4 5 5 4 4 4 5 5 5 6 6 4 3 2 2 3 2 4 4 5 8 8 7 7 7 8 8 8 8 8 8 9 9 9 10 10 11 11
6 6 6 6 5 5 5 5 5 5 6 4 3 2 2 3 3 4 4 5 4 7 6 6 7 8 8 8 8 8 8 9 9 10 10 10 10 11
7 7 7 5 6 6 5 6 5 5 5 6 4 3 3 3 3 4 4 4 4 5 7 7 7 8 8 8 8 8 8 8 9 9 10 10 11 11
7 7 8 7 7 6 6 6 5 5 5 5 5 3 3 3 4 4 4 4 5 3 7 8 8 8 7 7 8 8 8 8 8 8 9 10 10 10
7 7 7 8 8 7 6 6 6 5 5 5 5 4 3 3 4 3 3 3 4 4 3 5 7 9 9 9 8 8 8 8 7 7 8 8 9 9
6 6 7 6 6 6 6 5 5 5 5 5 4 4 3 3 3 3 4 4 3 3 3 4 4 5 6 9 9 7 7 7 7 7 8 8 9 9
6 6 6 7 6 7 7 7 7 7 7 6 5 4 4 5 3 4 4 4 4 2 4 5 4 4 4 4 5 6 7 7 7 7 7 8 9 9
6 6 6 5 6 6 6 8 9 9 9 8 7 6 6 5 5 6 4 5 5 3 4 6 4 5 4 3 7 8 8 8 8 8 8 8 9 9
7 7 7 7 6 6 6 6 7 7 8 8 7 7 6 5 5 6 5 6 6 5 4 6 5 5 5 4 8 9 9 9 9 9 8 9 9 10
7 7 7 7 4 4 7 7 7 6 6 7 7 6 5 5 5 5 5 6 5 4 4 5 5 5 5 5 6 11 11 11 10 10 9 9 9 10
6 6 6 7 5 6 7 7 7 7 6 5 6 7 8 9 9 8 7 6 6 5 2 4 5 5 5 4 4 5 7 10 12 11 11 10 8 7
5 5 3 5 7 7 8 7 6 6 6 6 6 6 6 6 7 7 7 6 6 5 3 3 5 5 5 5 4 4 4 4 6 8 10 11 10 8
6 5 2 3 5 7 7 6 6 6 6 5 5 5 5 5 5 5 6 6 6 7 5 5 6 5 6 7 5 4 3 4 4 4 4 7 10 12
5 2 2 4 5 7 9 8 8 7 6 6 6 5 4 3 4 4 5 6 7 7 6 7 7 6 6 7 7 5 4 4 4 4 4 4 5 5
5 3 5 6 7 6 5 7 7 6 5 5 5 4 4 4 5 4 4 5 6 5 6 7 7 7 7 7 7 6 5 4 3 4 4 5 5 5
3 4 4 4 5 5 5 5 5 5 5 5 5 5 5 5 4 4 4 5 5 5 4 4 6 6 8 7 7 6 5 4 4 3 4 5 4 4
4 5 5 5 6 6 6 5 5 5 4 4 5 5 5 4 4 4 5 5 5 4 4 4 4 5 6 5 5 6 5 4 3 3 4 5 5 3
6 6 6 6 6 6 6 5 5 4 3 4 4 4 4 4 4 4 4 4 4 4 4 4 4 5 6 5 3 4 5 4 4 4 4 4 4 3
6 6 6 6 5 6 5 5 4 4 4 4 4 4 4 4 4 4 4 4 4 4 4 3 3 4 5 5 4 3 5 5 4 4 3 3 3 2
6 6 5 5 5 5 5 4 4 4 4 4 4 5 5 5 4 4 4 3 4 4 4 3 2 3 5 4 4 3 2 3 2 3 4 4 4 4
5 5 5 5 5 5 5 4 4 4 4 5 4 4 5 5 5 5 4 4 4 3 3 2 2 3 4 4 4 3 2 1 3 3 3 4 4 4
5 5 5 5 5 5 5 4 4 4 4 4 4 4 4 4 4 4 4 4 4 3 3 3 2 3 4 3 3 3 2 2 2 2 2 4 5 5
Wind_Direction
230 230 245 251 250 253 256 260 272 282 278 258 260 250 264 271 258 257 259 200 213 223 228 230 232 233 235 234 234 234 234 235 236 236 234 233 236 237
239 248 254 256 260 253 252 253 258 272 281 286 279 284 292 283 243 269 264 220 216 214 222 230 233 234 237 237 236 234 232 232 235 238 237 235 236 236
234 235 241 258 260 259 253 252 253 259 268 279 287 286 279 282 288 284 272 263 222 194 212 229 235 235 236 235 236 235 233 233 237 239 241 238 236 237
235 240 245 243 247 259 259 257 256 257 261 269 273 267 268 261 267 271 272 269 270 181 198 220 228 229 231 233 233 233 232 235 238 242 241 236 234 236
240 243 246 246 248 249 252 253 254 249 252 257 261 265 257 255 265 261 266 268 268 210 197 208 218 224 226 227 228 229 229 232 236 241 238 235 235 237
246 248 249 248 250 250 247 245 249 253 248 251 255 252 248 248 252 260 264 257 268 270 247 232 218 216 221 222 224 229 229 231 235 237 234 232 233 235
246 248 251 255 266 263 265 259 253 251 252 253 255 257 256 258 259 266 268 271 264 258 266 254 234 234 219 215 219 227 230 231 233 236 234 231 231 235
247 249 247 234 230 229 241 254 263 257 259 262 261 260 262 263 265 265 269 273 271 248 268 267 259 259 249 236 189 205 225 234 235 235 234 232 233 236
248 248 249 244 235 239 225 224 235 242 248 259 262 264 262 260 262 260 263 274 280 284 272 271 260 259 255 207 176 198 220 229 233 233 234 236 236 238
246 246 250 252 247 247 249 247 245 233 230 235 249 256 258 258 252 257 263 262 259 249 250 270 273 271 267 238 179 197 213 224 230 233 236 237 239 240
246 245 245 247 236 236 248 251 254 252 234 230 245 255 266 260 259 257 252 256 266 256 224 262 276 276 264 248 196 196 211 220 227 229 232 234 239 243
246 243 241 242 227 222 240 248 253 256 253 229 227 231 234 229 222 236 252 260 270 272 233 255 276 277 269 244 237 212 217 219 223 223 222 225 230 245
252 245 230 198 218 227 240 249 255 268 257 246 241 236 230 226 220 221 235 255 268 273 269 259 277 277 277 278 256 246 247 247 227 217 213 213 214 231
261 261 239 182 219 231 235 242 242 246 248 244 247 244 241 238 233 232 233 244 256 269 278 277 275 278 281 281 279 269 256 255 257 251 240 199 210 225
266 300 269 225 237 235 232 232 232 238 240 241 244 248 250 252 249 235 228 233 242 244 244 249 259 266 271 278 285 288 287 272 254 256 253 241 234 228
250 232 220 232 243 258 236 221 231 241 246 248 249 252 250 238 236 239 240 238 246 239 220 227 242 255 263 270 277 280 281 278 273 262 263 258 248 243
249 243 238 234 234 233 234 233 231 225 229 238 243 243 240 239 242 239 243 251 256 258 243 227 230 235 250 264 271 275 277 276 274 276 266 261 255 252
244 243 242 247 250 248 241 232 227 228 231 235 237 238 238 237 239 236 237 244 254 260 259 257 248 242 243 232 236 266 272 277 281 273 266 264 264 255
232 244 245 247 252 255 251 247 242 230 231 237 238 237 238 236 235 234 234 241 250 256 259 259 257 260 261 263 218 223 269 281 277 270 268 273 279 281
235 243 247 247 249 257 256 250 247 231 221 232 233 231 233 238 243 240 234 241 251 256 256 253 258 268 273 280 285 258 226 259 276 280 282 278 277 274
233 241 247 250 250 253 255 249 247 236 231 232 232 233 234 238 243 250 246 226 248 255 258 260 254 247 262 265 263 263 240 191 265 290 287 277 276 265
242 245 246 247 247 253 248 240 238 237 230 231 234 233 234 239 238 243 251 246 244 250 260 255 222 232 246 253 265 274 274 227 183 209 271 283 295 298
248 251 251 250 249 251 247 236 235 240 241 242 238 238 241 242 248 245 240 246 250 251 254 253 242 241 253 255 264 275 284 280 272 243 224 197 211 236